Find Starlink 32437

NORAD ID: 63001 Int'l Des: 2025-031 Owner: SPXS Country: US Constellation: starlink operational
LEOCIRCULAR

实时位置

正在加载3D地球...

关于 Starlink 32437

正在加载描述...

即将过境

Passes for default location (London). Set your location on the main map for personalized predictions.

高度历史

Loading altitude history...

两行轨道根数

1 63001U 25031W 26125.46771293 .00038733 00000-0 14090-2 0 9996
2 63001 43.0005 183.1245 0001540 276.0455 84.0221 15.27595665 69774
Epoch: May 5, 2026 • Age: 18 hours

当前状态

高度 483.5 km
速度 7.63 km/s
星下点 -5.02°S, 60.63°E
发射日期 Feb 11, 2025
运行时间 1.2 years
类型 internet

技术详情

分类 Payload
质量 730.00 kg
干质量 700.00 kg
总质量 730.00 kg
长度 0.30 m
直径 4.10 m
跨度 29.00 m
形状 Box + pan
制造商 SPXS
平台类型 Starlink V2M
阶段状态 In Orbit
所有者/国家 SPXS/US

Most Searched